Regional Weather Roundup
Issued by NWS

Home | Current Version | Previous Version | Text Only | Print | Product List | Glossary On
Versions: 1 2 3 4 5 6 7 8 9 10 11 12 13 14 15 16 17 18 19 20 21 22 23 24 25 26 27 28 29 30 31 32 33 34 35 36 37 38 39 40 41 42 43 44 45 46 47 48 49 50
000
ASUS43 KMPX 271710
RWRMN
WEATHER ROUNDUP FOR MINNESOTA
NATIONAL WEATHER SERVICE TWIN CITIES/CHANHASSEN MN
1100 AM CST FRI FEB 27 2015


NOTE: "FAIR" INDICATES FEW OR NO CLOUDS BELOW 12,000 FEET WITH NO
SIGNIFICANT WEATHER AND/OR OBSTRUCTIONS TO VISIBILITY. N/A MEANS
CURRENT SKY AND/OR WEATHER CONDITIONS ARE NOT AVAILABLE.

MNZ060>063-068>070-271800-
   Twin Cities Metro

CITY           SKY/WX    TMP DP  RH WIND       PRES   REMARKS
TWIN CITIES    SUNNY      9  -3  58 W10       30.56S WCI  -5
ST PAUL        SUNNY      9  -4  55 SW8       30.58S WCI  -3
CRYSTAL        SUNNY     11  -2  56 W8        30.55R WCI  -1
BLAINE         SUNNY     10   0  61 W13       30.53F WCI  -5
EDEN PRAIRIE   SUNNY      7  -4  60 SW7       30.56R WCI  -5
SOUTH ST PAUL  SUNNY     10  -2  58 W8        30.57R WCI  -2
LAKE ELMO      FAIR      10   0  61 W9        30.56R WCI  -2
$$
MNZ001>005-007-008-013>017-022>024-027-028-271800-
   Northwest Minnesota

CITY           SKY/WX    TMP DP  RH WIND       PRES   REMARKS
BEMIDJI        SUNNY      8  -6  53 W9        30.40R WCI  -5
HALLOCK        SUNNY      0  -9  65 S10       30.41S WCI -17
ROSEAU         SUNNY      3  -6  66 SW10      30.37F WCI -12
WARROAD        SUNNY      3  -8  60 SW12      30.36S WCI -13
THIEF RVR FALL SUNNY      0 N/A N/A SW8       30.42S WCI -15
CROOKSTON      SUNNY      3  -2  78 SW9       30.46F WCI -11
FOSSTON        SUNNY      1  -4  78 SW14      30.43S WCI -17
DETROIT LAKES  SUNNY      7  -2  66 SW6       30.44S WCI  -3
MOORHEAD       SUNNY      7   0  72 SW7       30.49F WCI  -5
PARK RAPIDS    SUNNY      8  -4  58 SW6       30.41S WCI  -2
MAHNOMEN       FAIR       4  -2  75 SW10      30.44S WCI -11
$$
MNZ006-009>011-018-025>026-271800-
   North Central Minnesota

CITY           SKY/WX    TMP DP  RH WIND       PRES   REMARKS
BAUDETTE       SUNNY      8  -7  50 SW8       30.34S WCI  -4
FLAG ISLAND    SUNNY      3  -8  60 SW10      30.31F WCI -12
INTL FALLS     SUNNY      7  -8  50 SW10      30.36F WCI  -8
WASKISH        SUNNY      3  -6  66 SW6       30.39S WCI  -8
BIG FORK       SUNNY     10  -8  44 SW10      30.38S WCI  -3
LONGVILLE      SUNNY      9  -8  47 SW5       30.42S WCI   0
GRAND RAPIDS   SUNNY      7  -6  56 W7        30.40R WCI  -5
CRANE LAKE     SUNNY      9  -9  43 W9        30.39F WCI  -5
ORR            SUNNY      9 -11  40 W8        30.35R WCI  -4
COOK           SUNNY      9  -8  47 CALM      30.37F
WALKER         FAIR      10  -8  43 W6        30.40S WCI   0
$$
MNZ012-019>021-037-271800-
   Northeast Minnesota

CITY           SKY/WX    TMP DP  RH WIND       PRES   REMARKS
DULUTH         SUNNY      9  -6  50 W8        30.39S WCI  -3
ELY            SUNNY      9  -9  43 W10       30.36R WCI  -6
HIBBING        SUNNY      8  -8  48 W7        30.39S WCI  -3
EVELETH        SUNNY      7  -6  56 W8        30.39S WCI  -6
DULUTH HARBOR  SUNNY      7  -4  61 S10       30.49S WCI  -8
TWO HARBORS    SUNNY     12  -6  44 W10       30.39S WCI  -1
SILVER BAY     SUNNY     16  -9  32 CALM      30.37F
GRAND MARAIS     N/A     16  -4  41 W7        30.40S WCI   6
G MARAIS ARPRT SUNNY     10 -15  31 SW9       30.28S WCI  -2
$$
MNZ029>031-032-039>041-046>048-054>057-064-271800-
   West Central Minnesota

CITY           SKY/WX    TMP DP  RH WIND       PRES   REMARKS
FERGUS FALLS   SUNNY      3  -6  66 SW8       30.53S WCI -10
WHEATON        SUNNY      3  -6  66 SW5       30.54S WCI  -6
MORRIS         SUNNY      7  -4  61 SW6       30.51S WCI  -3
ALEXANDRIA     SUNNY     25  -5  26 SW8       30.47S WCI  16
ELBOW LAKE     FAIR       1  -5  76 SW7       30.49S WCI -12
WADENA         SUNNY      5  -4  66 SW7       30.44S WCI  -7
GLENWOOD       SUNNY      5  -4  66 SW13      30.49S WCI -12
APPLETON       SUNNY      9  -6  52 SW3       30.54S
BENSON         SUNNY      7  -6  56 W3        30.53S
ORTONVILLE     SUNNY      7  -6  56 W5        30.52S WCI  -2
MADISON        SUNNY      9   0  66 W5        30.54S WCI   0
WILLMAR        FAIR       3  -6  66 W7        30.54S WCI  -9
$$
MNZ033>034-036-042>043-049>051-058-059-271800-
   Central Minnesota

CITY           SKY/WX    TMP DP  RH WIND       PRES   REMARKS
ST CLOUD       SUNNY      8  -4  58 SW10      30.51S WCI  -6
SAUK CENTRE    FAIR       7  -4  62 W9        30.49S WCI  -7
PAYNESVILLE    SUNNY      5  -5  62 S12       30.52S WCI -11
AITKIN         SUNNY     10  -6  48 SW8       30.44S WCI  -1
PINE RIVER     SUNNY      9  -6  52 SW3       30.45S
BRAINERD       SUNNY      6  -6  57 SW8       30.46S WCI  -7
STAPLES        SUNNY      7  -6  56 SW5       30.45S WCI  -2
LONG PRAIRIE   FAIR       7  -4  61 S6        30.48S WCI  -3
LITTLE FALLS   SUNNY      9  -6  52 SW7       30.50S WCI  -3
LITCHFIELD     SUNNY      7  -2  66 W7        30.54R WCI  -5
BUFFALO        SUNNY      9  -2  61 W7        30.55S WCI  -3
MAPLE LAKE     SUNNY     10   0  62 W7        30.54S WCI  -1
$$
MNZ037-044-045-052-053-271800-
   East Central Minnesota

CITY           SKY/WX    TMP DP  RH WIND       PRES   REMARKS
PRINCETON      SUNNY     10  -2  56 SW7       30.51S WCI   0
MORA           SUNNY     10  -4  52 SW9       30.51S WCI  -2
CAMBRIDGE      SUNNY      9  -2  61 SW6       30.51S WCI  -1
RUSH CITY      SUNNY      8  -4  58 W5        30.53S WCI   0
MOOSE LAKE     SUNNY     10  -6  48 W9        30.45S WCI  -2
HINCKLEY       FAIR       9  -2  61 S7        30.49S WCI  -3
CLOQUET        SUNNY      9  -9  43 SW10      30.42R WCI  -6
MCGREGOR       SUNNY     10  -4  52 SW6       30.45S WCI   1
$$
MNZ071>073-080-081-089-090-097-098-271800-
   Southwest Minnesota

CITY           SKY/WX    TMP DP  RH WIND       PRES   REMARKS
MONTEVIDEO     SUNNY     10   1  67 W3        30.55S
GRANITE FALLS  SUNNY      6  -3  68 SW5       30.57R WCI  -3
CANBY          SUNNY      9  -2  61 W9        30.54S WCI  -5
MARSHALL       SUNNY      9  -4  56 W10       30.55R WCI  -6
REDWOOD FALLS  SUNNY      4  -5  66 SW8       30.56S WCI  -9
OLIVIA         SUNNY      5  -2  72 SW7       30.55R WCI  -7
PIPESTONE      SUNNY      1  -2  85 W7        30.49S WCI -11
WINDOM         SUNNY      5  -4  66 W10       30.53R WCI -10
WORTHINGTON    SUNNY     23  -8  25 W10       30.53S WCI  12
JACKSON        SUNNY      5  -4  66 W9        30.53S WCI  -9
TRACY          SUNNY      9  -1  62 W7        30.53S WCI  -2
SLAYTON        SUNNY      4  -5  64 W9        30.51S WCI -10
$$
MNZ065>067-074>077-082>085-091>093-271800-
   South Central Minnesota

CITY           SKY/WX    TMP DP  RH WIND       PRES   REMARKS
MANKATO        SUNNY      3  -8  60 W5        30.57R WCI  -6
NEW ULM        SUNNY      3  -6  66 W8        30.57R WCI -10
ST JAMES       SUNNY      7  -4  61 SW8       30.58R WCI  -6
FAIRMONT       SUNNY      7  -4  61 W9        30.55S WCI  -7
GLENCOE        SUNNY      7  -1  71 W6        30.56R WCI  -3
FARIBAULT      SUNNY      3  -6  66 S5        30.56S WCI  -6
OWATONNA       SUNNY      1  -4  78 SW8       30.55S WCI -12
WASECA         SUNNY      0  -4  85 SW5       30.58S WCI -10
ALBERT LEA     SUNNY      3  -6  66 W5        30.55S WCI  -6
$$
MNZ078>079-086>088-094>096-271800-
   Southeast Minnesota

CITY           SKY/WX    TMP DP  RH WIND       PRES   REMARKS
ROCHESTER      SUNNY     -1  -6  79 SW6       30.54R WCI -13
RED WING       SUNNY      9  -6  52 W7        30.57S WCI  -3
STANTON        SUNNY      6  -4  64 SW6       30.55F WCI  -5
DODGE CENTER   SUNNY      0  -4  85 SW7       30.53R WCI -13
WINONA         SUNNY     10  -4  52 CALM      30.62R
AUSTIN         SUNNY      1  -6  71 CALM      30.55S
PRESTON        SUNNY      0  -8  69 W8        30.56R WCI -14
$$
ABBREVIATIONS USED IN REMARKS
   TC - TEMPERATURES IN CELSIUS
  WCI - WIND CHILL INDEX
   HX - HEAT INDEX
  VSB - VISIBILITY
$$


USA.gov is the U.S. government's official web portal to all federal, state and local government web resources and services.